Regional Weather Roundup
Issued by NWS Boston, MA

Home | Current Version | Previous Version | Text Only | Print | Product List | Glossary On
Versions: 1 2 3 4 5 6 7 8 9 10 11 12 13 14 15 16 17 18 19 20 21 22 23 24 25 26 27 28 29 30 31 32 33 34 35 36 37 38 39 40 41 42 43 44 45 46 47 48 49 50
285
ASUS41 KBOX 252010
RWRBOX

REGIONAL WEATHER ROUNDUP
NATIONAL WEATHER SERVICE TAUNTON MA
400 PM EDT TUE JUL 25 2017

NOTE:  "FAIR" INDICATES FEW OR NO CLOUDS BELOW 12,000 FEET WITH NO
SIGNIFICANT WEATHER AND/OR OBSTRUCTIONS TO VISIBILITY.

MAZALL-252100-
EASTERN MASSACHUSETTS

CITY           SKY/WX    TMP DP  RH WIND       PRES   REMARKS
BOSTON         PTSUNNY   63  57  81 E9        30.16R
BEVERLY        PTSUNNY   66  56  70 E9        30.15R
LAWRENCE       PTSUNNY   68  57  68 E8        30.17R
BEDFORD        CLOUDY    65  55  70 N3        30.14S
BLUE HILL        N/A     60  55  83 NE9       30.15R
NORWOOD        CLOUDY    64  58  80 CALM      30.15R
MARSHFIELD     CLOUDY    64  57  77 NE9       30.15S
PLYMOUTH       CLOUDY    63  55  75 NE9       30.15R
TAUNTON        CLOUDY    64  55  72 VRB5      30.15R
NEW BEDFORD    CLOUDY    63  56  78 NE7       30.14R
$$

MAZALL-252100-
CAPE COD AND THE ISLANDS

CITY           SKY/WX    TMP DP  RH WIND       PRES   REMARKS
FALMOUTH       CLOUDY    63  55  77 NE13G20   30.15R
HYANNIS        CLOUDY    65  57  75 N14G20    30.12R
CHATHAM        CLOUDY    65  57  75 NE8       30.13R
PROVINCETOWN   CLOUDY    61  56  83 N6        30.15R
NANTUCKET      CLOUDY    64  58  80 NE15      30.12R
MARTHAS VNYRD  CLOUDY    66  56  70 N14G23    30.12S
$$

MAZALL-252100-
CENTRAL AND WESTERN MASSACHUSETTS

CITY           SKY/WX    TMP DP  RH WIND       PRES   REMARKS
WORCESTER      CLOUDY    60  54  80 VRB5      30.17S
FITCHBURG      CLOUDY    66  57  72 N6        30.17S
ORANGE         CLOUDY    63  56  78 N5        30.17R
SPRINGFIELD    CLOUDY    65  56  72 N7        30.15R
WESTFIELD      CLOUDY    66  57  72 VRB6      30.16R
NORTH ADAMS    CLOUDY    64  55  72 VRB3      30.17R
PITTSFIELD     CLOUDY    61  54  77 NE3       30.16S
$$

RIZALL-252100-
RHODE ISLAND

CITY           SKY/WX    TMP DP  RH WIND       PRES   REMARKS
PROVIDENCE     CLOUDY    63  57  81 NE10      30.16R
NEWPORT        CLOUDY    64  57  78 N9        30.14R
BLOCK ISLAND   CLOUDY    63  58  83 N9        30.15R
WESTERLY       CLOUDY    65  58  78 N8        30.15R
$$

CTZALL-252100-
CONNECTICUT

CITY           SKY/WX    TMP DP  RH WIND       PRES   REMARKS
BRADLEY INTL   PTSUNNY   66  56  70 N6        30.16R
HARTFORD       CLOUDY    68  57  68 N8        30.15R
BRIDGEPORT     CLOUDY    68  57  68 NE9       30.14R
DANBURY        CLOUDY    66  58  75 VRB3      30.16R
GROTON         CLOUDY    66  57  72 N6        30.13S
NEW HAVEN      CLOUDY    69  57  65 N9        30.14R
CHESTER        CLOUDY    68  57  68 VRB6      30.14S
MERIDEN        CLOUDY    67  57  70 NE5       30.14S
WILLIMANTIC    CLOUDY    67  57  70 NE7       30.15R
OXFORD         CLOUDY    63  54  72 NE6       30.16R
$$

MEZ002-015-021-024-NHZ003-005-008-011-012-014-VTZ005-008-252100-
NORTHERN NEW ENGLAND

CITY           SKY/WX    TMP DP  RH WIND       PRES   REMARKS
PORTLAND ME    PTSUNNY   71  54  54 S5        30.13S
BANGOR ME      PTSUNNY   76  50  40 NW5       30.11R
CONCORD NH     PTSUNNY   69  55  60 VRB3      30.15S
MANCHESTER NH  PTSUNNY   69  53  56 N7        30.14R
NASHUA NH      CLOUDY    68  57  68 N5        30.16S
PORTSMOUTH NH  PTSUNNY   67  55  63 S5        30.14S
JAFFREY NH     CLOUDY    63  57  81 VRB3      30.18R
KEENE NH       CLOUDY    66  56  70 W5        30.17S
BURLINGTON VT  CLOUDY    67  57  70 NW6       30.18S
MT. WASHINGTON FOG       46  46 100 N6          N/A  VSB 1/2
$$

NYZ052-076-252100-
EASTERN NEW YORK

CITY           SKY/WX    TMP DP  RH WIND       PRES   REMARKS
ALBANY         CLOUDY    64  57  78 N3        30.17R
NEW YORK CITY  CLOUDY    69  61  75 NE9       30.13R
$$

ANZALL-252100-
MARINE OBSERVATIONS

STATION/POSITION TIME  TEMP    WIND        PRES    VSBY  WAVE
                       AIR SEA DIR/SP/G                  HT/PER
                 (UTC) (F)     (DEG/KT/KT) (MB)    (MI)  (FT/S)
BOSTON BUOY      1950   62 62   20/ 10/ 12 1020.8R         5/ 8
BUZZARDS BAY     1900   62      30/ 12/ 14 1020.4R
NANTUCKET SOUND  1950      69              1019.4R         2/ 7
MASS BAY-STELLWA 1904   62 61   30/ 12/ 14 1019.9R         5/ 8
ISLE OF SHOALS   1900   62      20/  8/  9 1020.6R
S OF BLOCK IS    1955      72                N/A           4/ 8
$$

......................KEY.........................
  SKY/WX - SKY CONDITION/PRESENT WEATHER
  TMP    - TEMPERATURE IN FAHRENHEIT
  DWPT   - DEWPOINT IN FAHRENHEIT
  RH     - RELATIVE HUMIDITY IN PERCENT
  WIND   - DIRECTION AND SPEED IN MPH
  PRES   - MEAN SEA LEVEL PRESSURE IN INCHES OF HG
  WCI    - WIND CHILL INDEX
  VSB    - VISIBILITY IN MILES
  HX     - HEAT INDEX
  TC     - TEMPERATURE IN CELSIUS
  VRB    - VARIABLE WIND DIRECTION
  N/A    - NOT AVAILABLE




USA.gov is the U.S. government's official web portal to all federal, state and local government web resources and services.